Regional Weather Roundup
Issued by NWS

Home | Current Version | Previous Version | Text Only | Print | Product List | Glossary Off
Versions: 1 2 3 4 5 6 7 8 9 10 11 12 13 14 15 16 17 18 19 20 21 22 23 24 25 26 27 28 29 30 31 32 33 34 35 36 37 38 39 40 41 42 43 44 45 46 47 48 49 50

140
ASUS43 KIND 160809
RWRIN

WEATHER ROUNDUP FOR INDIANA
NATIONAL WEATHER SERVICE INDIANAPOLIS IN
400 AM EDT WED AUG 16 2017

NOTE: "FAIR" INDICATES FEW OR NO CLOUDS BELOW 12,000 FEET WITH NO
SIGNIFICANT WEATHER AND/OR OBSTRUCTIONS TO VISIBILITY.

* - STATION DOES NOT REPORT WEATHER SUCH AS PRECIPITATION OR FOG.

+ - STATION NOT QUALITY CONTROLLED BY THE NATIONAL WEATHER SERVICE.
    USE DATA WITH CAUTION...ESPECIALLY DEWPOINT AND RELATIVE
    HUMIDITY OBSERVATIONS.

INZ001>003-010>013-019-020-160900-
NORTHWEST INDIANA

CITY           SKY/WX    TMP DP  RH WIND       PRES   REMARKS
GARY /AIRPORT/ CLEAR     67  63  86 CALM      29.99S
KNOX *+          N/A     59  59 100 CALM      29.99S VSB 1/4
LA PORTE +     CLEAR     61  59  92 CALM      30.00S
MICHIGAN CITY+ MOCLDY    59  59 100 CALM      30.00S FOG
MONTICELLO +   CLEAR     66  65  94 CALM      29.97F
RENSSELAER +   CLEAR     64  59  82 NE5       29.98F HAZE
VALPARAISO     PTCLDY    63  61  93 NE3       30.00R

$$

LMZ046-743>745-160900-
SOUTHERN LAKE MICHIGAN

STATION/POSITION TIME  TEMP    WIND        PRES    WAVE
                       AIR SEA DIR/SP/G            HT
                 (UTC) (F)     (DEG/KT/KT) (MB)    (FT)
BURNS HARBOR     0740   70      70/  5/  6 1015.9S
MICHIGAN CITY    0740   68      70/  4/  5   N/A
5NW MICH CITY    0800   71 74   90/  6/  8   N/A     3

$$

INZ004-005-014>016-021>024-160900-
NORTH CENTRAL INDIANA

CITY           SKY/WX    TMP DP  RH WIND       PRES   REMARKS
GOSHEN         FOG       62  59  90 CALM      30.00S VSB 3/4
LOGANSPORT +   PTCLDY    64  64 100 CALM      29.99S
PERU/GRISSOM   PTCLDY    69  68  98 CALM      29.98S
ROCHESTER +    CLEAR     64  64 100 CALM      30.00S
SOUTH BEND     CLEAR     63  63 100 CALM      30.00S
WARSAW +       PTCLDY    61  61 100 CALM      30.00S FOG

$$

INZ006>009-017-018-025>027-160900-
NORTHEAST INDIANA

CITY           SKY/WX    TMP DP  RH WIND       PRES   REMARKS
AUBURN +       CLEAR     64  61  88 E3        30.02S
FORT WAYNE     PTCLDY    67  63  87 E3        30.00S
HUNTINGTON +   PTCLDY    64  63  96 CALM      29.99F
KENDALLVILLE + CLEAR     63  63 100 E3        30.02S

$$

INZ028-029-035-036-043>045-051>053-160900-
WEST CENTRAL INDIANA

CITY           SKY/WX    TMP DP  RH WIND       PRES   REMARKS
GREENCASTLE +  CLEAR     64  64 100 CALM      29.99S FOG
LAFAYETTE      CLEAR     67  66  97 E5        29.96F
TERRE HAUTE    CLEAR     67  64  90 CALM      29.97S FOG

$$

INZ030>032-037>040-046>048-054>057-064-065-160900-
CENTRAL INDIANA

CITY           SKY/WX    TMP DP  RH WIND       PRES   REMARKS
CP ATTERBURY +   N/A     64  63  94 CALM      29.99S FOG
FRANKFORT +    PTCLDY    70  68  94 CALM      30.01S
GREENWOOD *+   CLEAR     65  64  95 CALM      29.99S
INDIANAPOLIS   PTCLDY    72  67  84 CALM      29.98R
-EAGLE CREEK   MOCLDY    71  67  87 MISG      29.98R
KOKOMO +       CLOUDY    68  66  93 CALM      30.00S
MARION +       MOCLDY    64  64 100 CALM      30.00S
MT COMFORT *+  CLEAR     64  63  94 CALM      29.99S
SHELBYVILLE    PTCLDY    65  62  90 E3        29.98S FOG
ZIONSVILLE +   CLOUDY    67  66  97 CALM      29.99S

$$

INZ033-034-041-042-049-050-058-059-160900-
EAST CENTRAL INDIANA

CITY           SKY/WX    TMP DP  RH WIND       PRES   REMARKS
MUNCIE         PTCLDY    66  63  90 CALM      29.99S FOG
RICHMOND +     CLEAR     63  63 100 CALM      30.01S FOG

$$

INZ060-061-067>069-081>083-085>088-160900-
SOUTHWEST INDIANA

CITY           SKY/WX    TMP DP  RH WIND       PRES   REMARKS
EVANSVILLE     CLEAR     72  70  93 CALM      29.95S FOG
HUNTINGBURG *+ CLEAR     70  70 100 SE6       29.96S FOG
WASHINGTON +   MOCLDY    67  66  94 MISG      29.96S FOG

$$

INZ062-063-066-070>080-084-089>092-160900-
SOUTH CENTRAL AND SOUTHEAST INDIANA

CITY           SKY/WX    TMP DP  RH WIND       PRES   REMARKS
BEDFORD +      CLEAR     68  66  94 CALM      29.98R FOG
BLOOMINGTON    CLEAR     66  64  93 CALM      29.99S FOG
MADISON *+     PTCLDY    68  66  94 CALM      30.01R
NORTH VERNON + CLEAR     64  64 100 CALM      29.99S FOG
SEYMOUR +      FOG       68  68 100 CALM      29.98S VSB 3/4

$$





USA.gov is the U.S. government's official web portal to all federal, state and local government web resources and services.